{"data":{"norad_id":54071,"epoch":"2026-05-25T00:43:21.516096Z","epoch_age_seconds":82481,"freshness":"FRESH","line1":"1 54071U 22136W   26145.03011014  .00003968  00000+0  26736-3 0  9991","line2":"2 54071  53.2128   1.0706 0001180  93.4200 266.6927 15.08821295198379","mean_motion":15.08821295,"eccentricity":0.000118,"inclination_deg":53.2128,"raan_deg":1.0706,"arg_perigee_deg":93.42,"mean_anomaly_deg":266.6927,"bstar":0.00026736,"rev_number":19837,"period_min":95.438737826139,"perigee_km":538.98424662425,"apogee_km":540.61687988917,"semimajor_km":6917.9375632567,"source":"CELESTRAK","updated_at":"2026-05-25T13:38:17.651534Z"}}